#timestamp,LO_Frequency,Hit,StdDev 
1545282015.5,286047004.1,Y
1545282035.4,286047003.0,P
1545282055.2,286047004.2,P
1545282075.0,286047002.6,N
1545282075.9,286047002.6,N
1545282095.8,286047004.2,Y
1545282115.6,286047001.0,P
1545282135.5,286046997.5,N
1545282155.3,286046999.6,N
1545282175.1,286046997.3,N
1545282195.9,286046997.4,N
1545282215.7,286046997.5,N
1545282235.5,286046996.7,N
1545282255.4,286046997.3,N
1545282275.2,286046995.5,N
1545282295.1,286046997.3,N
1545282296.0,286046997.3,N
1545282315.8,286046999.3,N
1545282335.6,286047000.8,N
1545282355.5,286046998.7,N
1545282375.3,286047000.1,N
1545282395.1,286047000.7,N
1545282415.9,286047000.2,N
1545282435.7,286046999.4,N
1545282455.6,286046997.1,N
1545282475.4,286046995.3,N
1545282495.2,286046995.5,N
1545282515.1,286046996.3,N
1545282516.0,286046996.3,N
1545282535.8,286046996.3,N
1545282555.6,286046997.9,N
1545282575.5,286046996.7,N
1545282595.3,286046996.8,N
1545282615.1,286046999.5,N
1545282635.9,286046997.3,N
1545282655.7,286046997.2,N
1545282675.6,286046998.1,N
1545282695.4,286047002.8,N
1545282715.2,286047002.6,N
1545282735.1,286047003.7,N
1545282736.0,286047003.7,N
1545282785.8,286047001.1,E
1545282795.8,286046998.9,N
1545282815.6,286046997.3,P
1545282835.4,286046999.5,N
1545282855.3,286046996.6,Y
1545282875.1,286047001.2,P
1545282895.8,286047000.5,N
1545282915.7,286047001.9,N
1545282935.5,286047002.4,N
1545282955.4,286047000.7,N
1545282975.2,286046999.9,N
1545282995.0,286047000.7,N
1545282995.9,286047000.7,N
1545283015.8,286047000.9,N
1545283035.6,286047000.9,N
1545283055.4,286047000.1,N
1545283075.3,286047001.1,N
1545283095.1,286046997.9,N
1545283115.9,286046995.3,Y
1545283135.7,286046998.1,P
1545283155.5,286046995.4,P
1545283175.4,286046995.3,N
1545283195.2,286046995.4,N
1545283215.0,286046995.0,N
1545283215.9,286046995.0,N
1545283235.8,286047001.2,N
1545283255.6,286046996.6,N
1545283275.5,286046996.8,N
1545283295.3,286046997.5,N
1545283315.1,286046997.4,N
1545283335.9,286046997.8,N
1545283355.7,286046997.8,N
1545283375.5,286046994.9,N
1545283395.4,286046997.4,N
1545283415.2,286046998.9,N
1545283435.1,286046999.0,N
1545283436.0,286046999.0,N
1545283455.8,286047000.8,N
1545283475.6,286046997.0,N
1545283495.5,286046998.0,N
1545283515.3,286046994.9,N
1545283535.1,286046997.8,N
1545283555.9,286046997.3,N
1545283575.7,286046997.2,N
1545283595.6,286046995.2,N
1545283615.4,286046995.5,N
1545283635.2,286046994.1,Y
1545283655.1,286046997.8,P
1545283656.0,286046997.8,P
1545283675.8,286046997.8,P
1545283695.6,286047001.1,Y
1545283715.5,286047002.6,P
1545283735.3,286047002.4,N
1545283755.2,286047001.5,N
1545283775.9,286047002.9,N
1545283795.7,286047003.4,N
1545283815.6,286047003.8,N
1545283835.4,286047002.4,N
1545283855.2,286047002.2,N
1545283875.1,286047002.5,N
1545283876.0,286047002.5,N
1545283895.8,286047002.7,N
1545283915.7,286047000.5,N
1545283935.5,286047002.5,N
1545283955.3,286047003.6,N
1545283975.2,286047002.6,N
1545283995.0,286047001.8,N
1545283995.9,286047001.8,N
1545284015.7,286047004.3,Y
1545284035.6,286047003.0,P
1545284055.4,286047003.2,P
1545284075.3,286047000.0,N
1545284095.1,286047002.2,N
1545284096.0,286047002.2,N
1545284115.8,286047004.1,Y
1545284135.7,286047000.5,P
1545284155.5,286046999.8,N
1545284175.3,286047000.7,N
1545284195.2,286046998.6,N
1545284215.0,286046998.6,N
1545284215.9,286046998.6,N
1545284235.8,286046999.5,N
1545284255.6,286047002.7,N
1545284275.4,286046999.9,N
1545284295.3,286047001.1,N
1545284315.1,286046998.7,N
1545284335.8,286046998.8,N
1545284355.7,286046999.5,N
1545284375.5,286046996.7,N
1545284395.4,286046997.4,N
1545284415.2,286046999.5,N
1545284435.0,286046997.0,N
1545284435.9,286046997.0,N
1545284455.8,286046998.4,N
1545284475.6,286047001.4,N
1545284495.4,286046999.8,N
1545284515.3,286047005.5,Y
1545284535.1,286047006.4,P
1545284555.9,286047004.8,N
1545284575.7,286047005.1,N
1545284595.5,286047004.7,N
1545284615.4,286047007.6,Y
1545284635.2,286047002.8,P
1545284655.0,286046998.8,N
1545284655.9,286046998.8,N
1545284675.8,286046998.1,N
1545284695.6,286046997.5,N
1545284715.5,286046997.6,N
1545284735.3,286046993.5,N
1545284755.1,286046993.8,N
1545284775.9,286046995.3,N
1545284795.7,286046995.2,N
1545284815.5,286046997.5,N
1545284835.4,286046998.5,N
1545284855.2,286046998.9,N
1545284875.1,286046998.2,N
1545284876.0,286046998.2,N
1545284895.8,286046999.4,N
1545284915.6,286046996.9,N
1545284935.5,286047000.5,N
1545284955.3,286047000.4,N
1545284975.1,286046999.4,N
1545284995.9,286046999.3,N
1545285015.7,286046999.0,N
1545285035.6,286046995.1,N
1545285055.4,286046997.4,N
1545285075.2,286046998.8,N
1545285095.1,286046998.3,N
1545285096.0,286046998.3,N
1545285115.8,286046998.7,N
1545285135.6,286047002.1,N
1545285155.5,286047002.4,N
1545285175.3,286046998.9,N
1545285195.1,286046997.4,N
1545285215.9,286047001.1,N
1545285235.7,286047001.0,N
1545285255.6,286047000.7,N
1545285275.4,286046999.3,N
1545285295.2,286046996.9,N
1545285315.1,286046997.8,N
1545285316.0,286046997.8,N
1545285335.8,286047000.8,N
1545285355.7,286047000.5,N
1545285375.5,286047002.0,N
1545285395.3,286047001.0,N
1545285415.2,286046999.6,N
1545285435.0,286046999.0,N
1545285435.9,286046999.0,N
1545285455.7,286047000.7,N
1545285475.6,286047000.9,N
1545285495.4,286047001.0,N
1545285515.3,286046999.2,N
1545285535.1,286046997.7,N
1545285536.0,286046997.7,N
1545285555.8,286046997.3,N
1545285575.7,286046999.9,N
1545285595.5,286047002.7,N
